CW1248 Weather Reports


Display with metric or nautical units.
time (UTC)temp
F
wind
direction
speed
MPH
gust
MPH
rain 1hr
in
rain 24hr
in
rain mn
in
humidity
%
barometer
mb
20260904144504 78 22 2.0 5.0 0.00 0.10 0.00 87 1012.0
20260904143007 77 243 3.0 7.0 0.00 0.10 0.00 90 1012.0
20260904141517 75 279 2.0 4.0 0.00 0.10 0.00 92 1012.0
20260904140015 74 221 2.0 4.0 0.00 0.10 0.00 93 1011.8
20260904134513 74 230 4.0 9.0 0.00 0.10 0.00 95 1011.9
20260904133008 73 210 0.0 5.0 0.00 0.10 0.00 95 1011.9
20260904131509 72 284 2.0 8.0 0.00 0.10 0.00 95 1011.7
20260904130009 72 309 1.0 3.0 0.00 0.10 0.00 95 1011.7
20260904124524 71 295 1.0 5.0 0.00 0.10 0.00 95 1011.4
20260904123008 71 309 1.0 4.0 0.00 0.10 0.00 95 1011.2
20260904121521 71 321 0.0 4.0 0.00 0.10 0.00 94 1011.0
20260904120016 71 51 2.0 4.0 0.00 0.10 0.00 94 1011.0
20260904114507 72 51 0.0 5.0 0.00 0.10 0.00 94 1010.8
20260904113010 72 196 0.0 3.0 0.00 0.10 0.00 94 1010.7
20260904111522 72 265 1.0 4.0 0.00 0.10 0.00 94 1010.7
20260904110026 72 265 2.0 5.0 0.00 0.10 0.00 94 1010.7
20260904104511 72 200 2.0 4.0 0.00 0.10 0.00 94 1010.7
20260904103019 72 212 2.0 3.0 0.00 0.10 0.00 94 1010.7
20260904101516 72 215 1.0 3.0 0.00 0.10 0.00 94 1010.6
20260904100014 72 218 1.0 5.0 0.00 0.10 0.00 93 1010.5
20260904094519 72 218 2.0 3.0 0.00 0.10 0.00 92 1010.6
20260904093023 72 212 1.0 4.0 0.00 0.10 0.00 91 1010.5
20260904091547 72 160 1.0 4.0 0.00 0.10 0.00 91 1010.2
20260904090024 72 115 1.0 3.0 0.00 0.10 0.00 91 1010.1
20260904084517 73 126 0.0 2.0 0.00 0.10 0.00 91 1010.1
20260904083026 73 137 0.0 2.0 0.00 0.10 0.00 91 1009.9
20260904081528 73 178 0.0 1.0 0.00 0.10 0.00 90 1010.0
20260904080035 74 238 0.0 2.0 0.00 0.10 0.00 89 1010.0
20260904074525 74 291 0.0 2.0 0.00 0.10 0.00 89 1010.0
20260904073029 75 178 0.0 2.0 0.00 0.10 0.00 89 1010.0
20260904071527 75 178 0.0 4.0 0.00 0.10 0.00 89 1010.0
20260904070023 76 265 2.0 4.0 0.00 0.10 0.00 89 1010.0
20260904064516 76 217 2.0 6.0 0.00 0.10 0.00 89 1010.0
20260904063038 76 188 2.0 5.0 0.00 0.10 0.00 88 1010.1
20260904061532 76 150 1.0 8.0 0.00 0.10 0.00 88 1010.1
20260904060031 76 137 1.0 5.0 0.00 0.10 0.00 88 1010.2
20260904054533 76 123 0.0 6.0 0.00 0.10 0.00 88 1010.1
20260904053023 76 193 3.0 6.0 0.00 0.10 0.00 88 1010.0
20260904051524 76 148 2.0 5.0 0.00 0.10 0.00 87 1010.0
20260904050033 76 160 2.0 5.0 0.00 0.10 0.00 86 1010.0
20260904044527 77 178 2.0 5.0 0.00 0.10 0.10 86 1009.9
20260904043032 77 221 0.0 4.0 0.00 0.10 0.10 85 1009.8
20260904041528 77 171 2.0 7.0 0.00 0.10 0.10 84 1009.8
20260904040028 78 119 2.0 5.0 0.00 0.10 0.10 84 1009.9
20260904034530 78 103 1.0 6.0 0.00 0.10 0.10 83 1009.8
20260904033031 78 202 2.0 6.0 0.00 0.10 0.10 83 1009.9
20260904031531 78 137 2.0 7.0 0.00 0.10 0.10 83 1010.0
20260904030037 78 202 4.0 8.0 0.00 0.10 0.10 82 1010.0
20260904024530 78 178 1.0 6.0 0.00 0.10 0.10 81 1009.9
20260904023030 79 146 0.0 4.0 0.00 0.10 0.10 80 1009.9
20260904021535 79 153 2.0 7.0 0.00 0.10 0.10 80 1009.8
20260904020040 79 151 1.0 9.0 0.00 0.10 0.10 79 1009.8
20260904014522 80 111 2.0 8.0 0.00 0.10 0.10 78 1009.6
20260904013020 81 93 2.0 7.0 0.00 0.10 0.10 76 1009.5
20260904011522 81 119 2.0 8.0 0.00 0.10 0.10 75 1009.3
20260904010021 82 131 4.0 9.0 0.00 0.10 0.10 73 1009.2
20260904004521 83 51 2.0 8.0 0.00 0.10 0.10 71 1009.2
20260904003024 85 123 2.0 7.0 0.00 0.10 0.10 68 1009.3
20260904001522 85 140 3.0 8.0 0.00 0.10 0.10 68 1009.2
20260904000024 86 128 4.0 10.0 0.00 0.10 0.10 66 1009.2
20260903234524 86 147 8.0 13.0 0.00 0.10 0.10 66 1009.3
20260903233033 86 193 6.0 14.0 0.00 0.10 0.10 64 1009.3
20260903231523 87 178 5.0 15.0 0.00 0.10 0.10 63 1009.1
20260903230027 88 76 7.0 18.0 0.00 0.10 0.10 62 1008.8
20260903224507 88 82 6.0 18.0 0.00 0.10 0.10 62 1008.8
20260903223023 88 42 8.0 18.0 0.00 0.10 0.10 61 1008.7
20260903221536 88 141 8.0 18.0 0.00 0.10 0.10 61 1008.7
20260903220008 88 178 7.0 20.0 0.00 0.10 0.10 60 1008.8
20260903214511 88 130 7.0 19.0 0.00 0.10 0.10 60 1009.1
20260903213033 88 175 6.0 16.0 0.00 0.10 0.10 61 1009.3
20260903211509 88 103 7.0 15.0 0.00 0.10 0.10 61 1009.4
20260903210023 88 150 7.0 13.0 0.00 0.10 0.10 63 1009.2
20260903204515 86 142 4.0 11.0 0.00 0.10 0.10 66 1009.5
20260903203039 85 165 3.0 11.0 0.00 0.10 0.10 65 1009.7
20260903201518 86 111 6.0 18.0 0.00 0.10 0.10 62 1009.7
20260903200021 87 147 8.0 16.0 0.00 0.10 0.10 59 1009.8
20260903194522 87 162 5.0 15.0 0.00 0.10 0.10 63 1009.8
20260903193007 87 144 7.0 18.0 0.00 0.10 0.10 62 1010.4
20260903191534 87 161 8.0 14.0 0.00 0.10 0.10 64 1010.0
20260903190014 86 137 8.0 18.0 0.00 0.10 0.10 67 1010.1
20260903184523 84 123 6.0 13.0 0.01 0.10 0.10 71 1010.1
20260903183026 82 126 4.0 12.0 0.06 0.10 0.10 80 1010.3
20260903181510 79 171 4.0 10.0 0.06 0.10 0.10 89 1010.4
20260903180028 77 108 2.0 5.0 0.06 0.10 0.10 87 1010.6
20260903174527 78 294 1.0 11.0 0.08 0.09 0.09 83 1010.4
20260903173028 78 138 3.0 8.0 0.04 0.04 0.04 84 1010.4
20260903171525 77 41 3.0 10.0 0.04 0.04 0.04 86 1010.6
20260903170023 77 86 2.0 7.0 0.04 0.04 0.04 84 1011.0
20260903164518 77 9 1.0 9.0 0.01 0.01 0.01 80 1011.3
20260903163039 78 116 4.0 10.0 0.00 0.00 0.00 78 1011.1
20260903161515 78 126 2.0 8.0 0.00 0.00 0.00 78 1010.9
20260903160031 77 130 7.0 14.0 0.00 0.00 0.00 77 1011.3
20260903154530 76 133 2.0 9.0 0.00 0.00 0.00 80 1011.1
20260903153031 76 113 1.0 7.0 0.00 0.00 0.00 82 1011.1
20260903151524 76 111 2.0 6.0 0.00 0.00 0.00 82 1011.3
20260903150032 76 41 2.0 10.0 0.00 0.00 0.00 79 1011.3